#timestamp,LO_Frequency,Hit,StdDev 
1606719615.7,286047004.2,P
1606719635.6,286047003.9,N
1606719655.4,286047003.5,N
1606719675.2,286047004.0,N
1606719695.1,286047004.1,N
1606719696.0,286047004.1,N
1606719715.8,286047004.0,N
1606719735.6,286047001.4,N
1606719755.5,286047005.5,Y
1606719775.3,286047002.3,P
1606719795.2,286047001.0,N
1606719815.9,286046999.7,N
1606719835.7,286047000.4,N
1606719855.6,286047001.2,N
1606719875.4,286046998.4,N
1606719895.2,286046998.3,N
1606719915.1,286047000.8,N
1606719916.0,286047000.8,N
1606719935.8,286047001.1,N
1606719955.7,286047000.5,N
1606719975.5,286046998.6,N
1606719995.3,286046999.0,N
1606720015.2,286047000.6,N
1606720035.9,286046998.2,N
1606720055.7,286046998.3,N
1606720075.6,286046999.5,N
1606720095.4,286047000.7,N
1606720115.2,286047000.4,N
1606720135.1,286047001.1,N
1606720136.0,286047001.1,N
1606720155.8,286046998.3,N
1606720175.7,286046996.9,N
1606720195.5,286046999.5,N
1606720215.3,286046999.4,N
1606720235.2,286046999.1,N
1606720255.0,286046996.9,N
1606720255.9,286046996.9,N
1606720275.7,286046999.2,N
1606720295.6,286046995.3,Y
1606720315.4,286046998.0,P
1606720335.3,286046997.9,N
1606720355.1,286046995.1,P
1606720375.8,286046994.2,Y
1606720395.7,286046995.1,P
1606720415.5,286046994.9,P
1606720435.4,286046995.4,P
1606720455.2,286046995.4,Y
1606720475.0,286047001.5,P
1606720475.9,286047001.5,N
1606720495.8,286047002.9,N
1606720515.6,286047003.4,N
1606720535.4,286047004.4,N
1606720555.3,286047001.7,N
1606720575.1,286047001.5,N
1606720595.9,286047001.6,N
1606720615.7,286047003.9,N
1606720635.5,286047003.8,N
1606720655.4,286047004.2,N
1606720675.2,286047005.3,N
1606720695.0,286047003.6,N
1606720695.9,286047003.6,N
1606720715.8,286047004.2,N
1606720735.6,286047001.7,N
1606720755.5,286047004.4,N
1606720775.3,286047002.2,N
1606720795.1,286047002.5,N
1606720815.9,286047001.0,N
1606720835.7,286047000.3,N
1606720855.5,286047000.1,N
1606720875.4,286047000.4,N
1606720895.2,286047000.2,N
1606720915.0,286047000.1,N
1606720916.0,286047000.1,N
1606720935.8,286047000.7,N
1606720955.6,286046998.7,N
1606720975.5,286046998.4,N
1606720995.3,286047001.2,N
1606721015.1,286047001.0,N
1606721035.9,286046998.2,N
1606721055.7,286047000.8,N
1606721075.6,286047004.4,N
1606721095.4,286047002.4,N
1606721115.2,286047001.8,N
1606721135.1,286047002.4,N
1606721136.0,286047002.4,N
1606721155.8,286047001.9,N
1606721175.6,286047001.6,N
1606721195.5,286047001.4,N
1606721215.3,286046999.7,N
1606721235.2,286047000.1,N
1606721255.9,286047002.3,N
1606721275.7,286046998.2,N
1606721295.6,286046998.6,N
1606721315.4,286047000.4,N
1606721335.2,286047002.7,N
1606721355.1,286047002.5,N
1606721356.0,286047002.5,N
1606721375.8,286046999.7,N
1606721395.7,286047002.8,N
1606721415.5,286047004.0,N
1606721435.3,286047004.9,N
1606721455.2,286047004.6,N
1606721475.0,286047005.1,N
1606721475.9,286047005.1,N
1606721495.7,286047007.3,Y
1606721515.6,286047003.3,P
1606721535.4,286047005.4,P
1606721555.3,286047004.6,N
1606721575.1,286047005.1,Y
1606721576.0,286047005.1,P
1606721595.8,286047000.6,N
1606721615.7,286047002.4,N
1606721635.5,286047002.7,N
1606721655.3,286047000.9,N
1606721675.2,286046997.1,N
1606721695.0,286046997.8,N
1606721695.9,286046997.8,N
1606721715.8,286046995.0,N
1606721735.6,286046997.6,N
1606721755.4,286046996.1,N
1606721775.3,286046994.1,N
1606721795.1,286046993.5,N
1606721815.9,286046997.6,N
1606721835.7,286046995.7,N
1606721855.5,286046995.6,N
1606721875.4,286046995.9,N
1606721895.2,286046996.1,N
1606721915.0,286046993.4,N
1606721915.9,286046993.4,N
1606721935.8,286046993.6,N
1606721955.6,286046994.0,N
1606721975.5,286046991.7,N
1606721995.3,286046994.6,N
1606722015.1,286046991.7,N
1606722035.9,286046994.5,N
1606722055.7,286046992.3,N
1606722075.5,286046994.2,N
1606722095.4,286046993.5,N
1606722115.2,286046995.2,N
1606722135.0,286046993.4,N
1606722136.0,286046993.4,N
1606722155.8,286046993.7,N
1606722175.6,286046993.6,N
1606722195.5,286046995.0,N
1606722215.3,286046994.9,Y
1606722235.1,286047000.9,P
1606722255.9,286046998.7,N
1606722275.7,286046998.3,N
1606722295.6,286046998.4,N
1606722315.4,286046994.9,N
1606722335.2,286046996.0,N
1606722355.1,286046994.9,N
1606722356.0,286046994.9,N
1606722375.8,286046994.0,N
1606722395.6,286046991.8,Y
1606722415.5,286046995.6,P
1606722435.3,286046996.1,P
1606722455.2,286046996.1,P
1606722475.9,286046995.5,Y
1606722495.7,286047002.8,P
1606722515.6,286047001.1,N
1606722535.4,286047000.8,N
1606722555.2,286046998.7,N
1606722575.1,286046996.5,N
1606722576.0,286046996.5,N
1606722595.8,286046997.1,N
1606722615.7,286046995.3,N
1606722635.5,286046995.6,N
1606722655.3,286046996.1,N
1606722675.2,286046995.0,N
1606722695.9,286046997.3,N
1606722715.7,286046997.5,N
1606722735.6,286046997.9,N
1606722755.4,286046995.4,N
1606722775.2,286046994.9,N
1606722795.1,286046997.6,N
1606722796.0,286046997.6,N
1606722815.8,286046996.1,N
1606722835.7,286046993.7,Y
1606722855.5,286046997.5,P
1606722875.3,286046997.5,P
1606722895.2,286046997.3,P
1606722915.0,286046997.9,Y
1606722915.9,286046997.9,P
1606722935.8,286046999.0,P
1606722955.6,286046996.6,P
1606722975.4,286046996.7,Y
1606722995.3,286047002.8,P
1606723015.1,286047002.1,N
1606723035.8,286047001.9,N
1606723055.7,286047002.3,N
1606723075.5,286046999.7,N
1606723095.4,286047002.3,N
1606723115.2,286047000.7,N
1606723135.0,286046998.2,N
1606723135.9,286046998.2,N
1606723155.8,286046998.3,N
1606723175.6,286047001.1,N
1606723195.4,286047001.0,N
